EW5447 Weather Reports


Display with metric or nautical units.
time (UTC)temp
F
wind
direction
speed
MPH
gust
MPH
rain 1hr
in
rain 24hr
in
rain mn
in
humidity
%
barometer
mb
20260831181557 78 214 0.0 4.0 0.00 0.00 0.00 32 1009.7
20260831180049 76 124 2.0 5.0 0.00 0.00 0.00 35 1009.9
20260831174546 74 227 2.0 5.0 0.00 0.00 0.00 35 1010.1
20260831173039 73 309 1.0 3.0 0.00 0.00 0.00 37 1010.3
20260831171534 71 300 1.0 5.0 0.00 0.00 0.00 39 1010.4
20260831170031 70 314 0.0 3.0 0.00 0.00 0.00 41 1010.6
20260831164539 68 232 1.0 4.0 0.00 0.00 0.00 42 1010.7
20260831163024 67 272 0.0 2.0 0.00 0.00 0.00 44 1010.9
20260831161516 65 119 0.0 2.0 0.00 0.00 0.00 46 1011.2
20260831160012 64 161 0.0 2.0 0.00 0.00 0.00 50 1011.3
20260831154507 61 147 0.0 2.0 0.00 0.00 0.00 54 1011.4
20260831153002 59 56 0.0 0.0 0.00 0.00 0.00 57 1011.5
20260831151602 56 150 0.0 0.0 0.00 0.00 0.00 61 1011.6
20260831150055 54 213 0.0 2.0 0.00 0.00 0.00 65 1011.5
20260831144606 51 235 0.0 0.0 0.00 0.00 0.00 74 1011.5
20260831143057 49 300 0.0 0.0 0.00 0.00 0.00 77 1011.4
20260831141546 48 310 0.0 0.0 0.00 0.00 0.00 77 1011.3
20260831140044 47 310 0.0 1.0 0.00 0.00 0.00 77 1011.2
20260831134542 48 315 0.0 2.0 0.00 0.00 0.00 75 1011.2
20260831133040 48 21 0.0 0.0 0.00 0.00 0.00 75 1011.2
20260831131540 48 21 0.0 0.0 0.00 0.00 0.00 74 1011.3
20260831130038 48 296 0.0 0.0 0.00 0.00 0.00 74 1011.2
20260831124536 49 296 0.0 0.0 0.00 0.00 0.00 72 1011.2
20260831123037 49 296 0.0 0.0 0.00 0.00 0.00 74 1011.2
20260831121534 49 323 0.0 0.0 0.00 0.00 0.00 75 1011.2
20260831120039 49 21 0.0 1.0 0.00 0.00 0.00 71 1011.2
20260831114534 50 232 0.0 0.0 0.00 0.00 0.00 73 1011.4
20260831113028 50 195 0.0 0.0 0.00 0.00 0.00 70 1011.4
20260831111527 50 195 0.0 0.0 0.00 0.00 0.00 69 1011.5
20260831110026 50 195 0.0 1.0 0.00 0.00 0.00 69 1011.5
20260831104523 51 285 1.0 2.0 0.00 0.00 0.00 68 1011.4
20260831103021 52 313 0.0 0.0 0.00 0.00 0.00 67 1011.4
20260831101519 52 302 0.0 0.0 0.00 0.00 0.00 66 1011.5
20260831100016 53 9 0.0 0.0 0.00 0.00 0.00 65 1011.6
20260831094515 53 53 0.0 0.0 0.00 0.00 0.00 66 1011.7
20260831093029 54 310 0.0 0.0 0.00 0.00 0.00 66 1011.8
20260831091512 54 159 0.0 2.0 0.00 0.00 0.00 64 1011.8
20260831090009 54 332 0.0 0.0 0.00 0.00 0.00 64 1011.8
20260831084506 55 296 0.0 0.0 0.00 0.00 0.00 61 1011.8
20260831083004 56 284 0.0 0.0 0.00 0.00 0.00 60 1011.9
20260831081502 56 79 0.0 0.0 0.00 0.00 0.00 59 1012.0
20260831080100 57 79 0.0 0.0 0.00 0.00 0.00 58 1012.1
20260831074556 57 56 0.0 0.0 0.00 0.00 0.00 57 1012.1
20260831073057 58 323 0.0 0.0 0.00 0.00 0.00 56 1012.1
20260831071549 59 318 0.0 0.0 0.00 0.00 0.00 54 1012.2
20260831070045 60 14 0.0 0.0 0.00 0.00 0.00 56 1012.2
20260831064545 61 306 0.0 0.0 0.00 0.00 0.00 50 1012.2
20260831063044 62 306 0.0 0.0 0.00 0.00 0.00 49 1012.3
20260831061544 63 20 0.0 0.0 0.00 0.00 0.00 47 1012.3
20260831060046 64 13 0.0 0.0 0.00 0.00 0.00 46 1012.3
20260831054542 64 9 0.0 0.0 0.00 0.00 0.00 46 1012.4
20260831053042 65 22 0.0 2.0 0.00 0.00 0.00 45 1012.4
20260831051542 68 44 1.0 3.0 0.00 0.00 0.00 41 1012.5
20260831050041 69 76 0.0 0.0 0.00 0.00 0.00 40 1012.4
20260831044541 70 26 0.0 3.0 0.00 0.00 0.00 39 1012.4
20260831043044 71 40 0.0 0.0 0.00 0.00 0.00 38 1012.2
20260831041551 72 69 0.0 3.0 0.00 0.00 0.00 37 1012.0
20260831040040 73 321 2.0 8.0 0.00 0.00 0.00 36 1011.9
20260831034539 74 311 3.0 5.0 0.00 0.00 0.00 36 1011.7
20260831033040 75 304 1.0 5.0 0.00 0.00 0.00 34 1011.5
20260831031540 76 281 3.0 9.0 0.00 0.00 0.00 32 1011.3
20260831030037 78 305 5.0 10.0 0.00 0.00 0.00 32 1011.2
20260831024541 79 326 3.0 8.0 0.00 0.00 0.00 30 1011.0
20260831023036 81 323 6.0 10.0 0.00 0.00 0.00 29 1010.9
20260831021537 83 310 5.0 9.0 0.00 0.00 0.00 28 1010.9
20260831020036 84 311 5.0 10.0 0.00 0.00 0.00 26 1010.8
20260831014534 86 312 6.0 12.0 0.00 0.00 0.00 25 1010.9
20260831013035 87 324 4.0 11.0 0.00 0.00 0.00 25 1010.9
20260831011534 89 340 4.0 13.0 0.00 0.00 0.00 24 1010.8
20260831010038 89 275 3.0 8.0 0.00 0.00 0.00 23 1010.8
20260831004532 90 273 3.0 9.0 0.00 0.00 0.00 22 1011.0
20260831003031 90 254 1.0 5.0 0.00 0.00 0.00 22 1011.1
20260831001529 90 304 4.0 8.0 0.00 0.00 0.00 22 1011.3
20260831000028 90 224 0.0 6.0 0.00 0.00 0.00 22 1011.4
20260830234531 90 241 2.0 5.0 0.00 0.00 0.00 21 1011.6
20260830233023 90 198 2.0 10.0 0.00 0.00 0.00 21 1011.8
20260830231521 90 211 2.0 5.0 0.00 0.00 0.00 21 1012.1
20260830230018 89 272 1.0 6.0 0.00 0.00 0.00 23 1012.3
20260830224516 89 242 3.0 6.0 0.00 0.00 0.00 23 1012.6
20260830223013 88 257 1.0 4.0 0.00 0.00 0.00 24 1012.8
20260830221510 87 338 2.0 5.0 0.00 0.00 0.00 24 1013.1
20260830220007 87 298 3.0 6.0 0.00 0.00 0.00 24 1013.5
20260830214502 85 170 4.0 8.0 0.00 0.00 0.00 25 1013.9
20260830213100 85 194 3.0 7.0 0.00 0.00 0.00 25 1014.2
20260830211559 83 229 3.0 6.0 0.00 0.00 0.00 27 1014.4
20260830210054 83 331 2.0 8.0 0.00 0.00 0.00 27 1014.7
20260830204549 81 169 2.0 7.0 0.00 0.00 0.00 29 1014.9
20260830203051 80 131 2.0 6.0 0.00 0.00 0.00 30 1015.1
20260830201546 79 221 1.0 5.0 0.00 0.00 0.00 30 1015.4
20260830200039 78 194 3.0 7.0 0.00 0.00 0.00 31 1015.6
20260830194537 77 222 4.0 7.0 0.00 0.00 0.00 31 1015.8
20260830193032 76 125 2.0 7.0 0.00 0.00 0.00 33 1016.2
20260830191528 76 266 0.0 5.0 0.00 0.00 0.00 34 1016.5
20260830190028 74 92 0.0 4.0 0.00 0.00 0.00 36 1016.7
20260830184530 72 346 1.0 4.0 0.00 0.00 0.00 38 1017.0
20260830183021 71 134 2.0 5.0 0.00 0.00 0.00 39 1017.3